Ponce, PR

10:52 PM AST on August 19, 2017 (GMT -0400)
Mercedita

Weather History for TJPS - January, 2014

Change the Weather History Date:

Tuesday, January 7, 2014

  Actual Average Record
Temperature  
Mean Temperature 80 °F -  
Max Temperature 87 °F 85 °F 89 °F (2007)
Min Temperature 73 °F 68 °F 35 °F (2009)
Cooling Degree Days 15    
Growing Degree Days 30 (Base 50)    
Moisture  
Dew Point 70 °F    
Average Humidity 72    
Maximum Humidity 83    
Minimum Humidity 62    
Precipitation  
Precipitation 0.00 in - - ()
Sea Level Pressure  
Sea Level Pressure 30.03 in    
Wind  
Wind Speed 6 mph (East)    
Max Wind Speed 12 mph    
Max Gust Speed 21 mph    
Visibility 10 miles    
Events      
Averages and records for this station are not official NWS values.
T = Trace of Precipitation, MM = Missing Value Source: NWS Daily Summary

Daily Weather History Graph

Daily Weather History Graph

Search for Another Location

Airport or City:

Trip Planner

Search our weather history database for the weather conditions in past years. The results will help you decide how hot, cold, wet, or windy it might be!

Date:

Astronomy

Jan. 07, 2014 Rise Set
Actual Time 6:59 AM AST 6:05 PM AST
Civil Twilight 6:35 AM AST 6:29 PM AST
Nautical Twilight 6:08 AM AST 6:56 PM AST
Astronomical Twilight 5:42 AM AST 7:23 PM AST
Moon 11:48 AM AST (1/7) No Moon Set
Length of Visible Light 11h 53m
Length of Day
11h 06m
Waxing Crescent, 45% of the Moon is Illuminated
Jan 7
Waxing Crescent
Jan 7
First Quarter
Jan 16
Full
Jan 24
Last Quarter
Jan 30
New

Hourly Weather History & Observations

Time (AST) Temp. Heat Index Dew Point Humidity Pressure Visibility Wind Dir Wind Speed Gust Speed Precip Events Conditions
12:50 AM 75.2 °F - 69.8 °F 83% 30.02 in 10.0 mi Calm Calm - N/A   Scattered Clouds
1:50 AM 75.2 °F - 68.0 °F 78% 30.02 in 10.0 mi ENE 5.8 mph - N/A   Scattered Clouds
2:50 AM 75.2 °F - 68.0 °F 78% 30.01 in 10.0 mi East 5.8 mph - N/A   Mostly Cloudy
3:50 AM 75.2 °F - 68.0 °F 78% 30.01 in 10.0 mi NE 5.8 mph - N/A   Mostly Cloudy
4:50 AM 73.4 °F - 68.0 °F 83% 30.01 in 10.0 mi ENE 5.8 mph - N/A   Scattered Clouds
5:50 AM 73.4 °F - 68.0 °F 83% 30.01 in 10.0 mi NE 5.8 mph - N/A   Partly Cloudy
6:50 AM 73.4 °F - 68.0 °F 83% 30.01 in 10.0 mi Calm Calm - N/A   Partly Cloudy
7:50 AM 75.2 °F - 69.8 °F 83% 30.03 in 10.0 mi Calm Calm - N/A   Partly Cloudy
8:50 AM 82.4 °F 87.2 °F 71.6 °F 70% 30.07 in 10.0 mi ENE 9.2 mph - N/A   Partly Cloudy
9:50 AM 86.0 °F 91.8 °F 71.6 °F 62% 30.08 in 10.0 mi East 11.5 mph - N/A   Partly Cloudy
10:50 AM 84.2 °F 89.6 °F 71.6 °F 66% 30.08 in 10.0 mi East 11.5 mph - N/A   Mostly Cloudy
11:50 AM 84.2 °F 89.6 °F 71.6 °F 66% 30.04 in 10.0 mi SE 11.5 mph 17.3 mph N/A   Partly Cloudy
1:50 PM 87.8 °F 97.6 °F 75.2 °F 66% 30.00 in 10.0 mi SE 11.5 mph 17.3 mph N/A   Partly Cloudy
2:50 PM 87.8 °F 95.6 °F 73.4 °F 62% 30.01 in 10.0 mi ESE 11.5 mph - N/A   Partly Cloudy
3:50 PM 86.0 °F 93.4 °F 73.4 °F 66% 30.00 in 10.0 mi SE 11.5 mph 20.7 mph N/A   Scattered Clouds
4:50 PM 84.2 °F 88.4 °F 69.8 °F 62% 29.98 in 10.0 mi ESE 11.5 mph 20.7 mph N/A   Partly Cloudy
5:50 PM 82.4 °F 86.3 °F 69.8 °F 66% 30.00 in 10.0 mi ESE 11.5 mph - N/A   Partly Cloudy
6:50 PM 80.6 °F 83.9 °F 69.8 °F 70% 30.01 in 10.0 mi ENE 9.2 mph - N/A   Partly Cloudy
7:50 PM 78.8 °F - 68.0 °F 69% 30.04 in 10.0 mi East 5.8 mph - N/A   Partly Cloudy
8:50 PM 75.2 °F - 66.2 °F 73% 30.07 in 10.0 mi ENE 5.8 mph - N/A   Clear
9:50 PM 75.2 °F - 66.2 °F 73% 30.07 in 10.0 mi ENE 11.5 mph - N/A   Clear
10:50 PM 75.2 °F - 66.2 °F 73% 30.07 in 10.0 mi Calm Calm - N/A   Clear